Showing default

COSMOS 2255, 22690

Orbit data source: Space-Track

COSMOS 2255, 22690 is a payload satellite owned by VKS (CIS) in LEO that was launched on Thu, 24 Jun 1993 UTC via a TSIKLON-3 launch vehicle from the Plesetsk Missile And Space Complex (PKMTR). Payloads include a variety of satellites, spacecraft, and rockets equipped with specific instruments for various scientific and technological missions. These include communications satellites like Starlink; space stations such as the ISS; scientific satellites like the Hubble; Earth observation satellites from companies like Planet Labs, Umbra, and HawkEye 360; GPS; miniature CubeSats for education and research; and military/defense satellites.

Loading next visibility...
COSMOS 2255 details
Identifier
22690, 1993-038D
Orbit
LEO
Last TLE update18 hours ago
Origin
Flag of CISVKS (CIS)
ManufacturerNPO PM
MissionDefense Communications
Bus & MotorSTRELA-3, Unknown motor
Mass225 kg wet, 225 kg dry
Launch date (UTC)
1993-06-24 (32 years ago)
Launch vehicle
TSIKLON-3
Launch site
Plesetsk Missile And Space Complex (PKMTR)
Object type
Payload
Rocket body
Debris
Shape & HBRCyl, 1.6 m
Radar Cross Section1.257 m², Medium (>0.1 m² and < 1m²)

Expand to show TLE details & history

TLE from 18 hours ago
0 COSMOS 2255
1 22690U 93038D   25035.49026449  .00000037  00000-0  14517-3 0  9996
2 22690  82.5855 187.5314 0006144  41.8416  20.9858 12.63312064458380
Epoch: 2025-02-04T11:45Z
Definitive object data (Epoch: 2025-02-04T11:45:58.851Z)
Latitude62.0184°
Longitude-109.75196°
Altitude1,415.424 km
Speed7.161 km/s
True Right ascension13h 26m 33s
True Declination61° 53' 16"
Sunlit
Object was in daylight at TLE epoch
Visualization TLE readout
Latitude-75.9805°
Longitude86.89864°
Altitude1,440.538 km
Speed7.139 km/s
Apparent Right ascension21h 25m 03s
Apparent Declination-66° 54' 07"
Sunlit
Object is in daylight
Visualization observer readout
Local Sidereal Time07:56:16
Azimuth197.416° SSW
Elevation-60.322°
Doppler factor1
Orbital elements
Apogee altitude1,411.406 km
Perigee altitude1,401.84 km
Semi-major axis7,784.76 km
Eccentricity0.0006144
Inclination82.5855°
RAAN187.5314°
Arg. of periapsis41.8416°
True anomaly21.01103°
Mean anomaly20.9858°
Eccentric anomaly20.99841°
Mean motion3.15991 °/min
BSTAR0.00014517
Orbital period113.93 mins
Loading maneuver chart data...
Loading historical data...
Loading historical data...
Loading historical data...
Loading historical data...
Loading historical data...
Loading historical data...
Loading historical data...

COSMOS 2255 Visibility forecast

Observer location: undefined°, undefined

Span
Click to sort rows by Start time (UTC) header in descending order
Start Az.
Max El. time (UTC)
Max El. Az.
Max El.
End time (UTC)
End Az.
15 mins2025-02-05 10:20:11.790Z171.249° S2025-02-05 10:27:11.790Z95.338° ESE42.658°2025-02-05 10:35:11.790Z13.214° NNE
11 mins2025-02-05 12:18:11.790Z250.554° W2025-02-05 12:23:11.790Z296.209° NW22.782°2025-02-05 12:29:11.790Z343.995° N
12 mins2025-02-05 20:22:11.790Z20.17° NNE2025-02-05 20:28:11.790Z73.822° E23.924°2025-02-05 20:34:11.790Z121.765° SE
15 mins2025-02-05 22:16:11.790Z344.48° N2025-02-05 22:23:11.790Z267.926° W41.855°2025-02-05 22:31:11.790Z189.714° SSW
|